Flag for Germany Weather past 2 weeks in Moers, North Rhine-Westphalia, Germany

Now
50 °F

Light rain. Partly sunny.


Feels Like: 47 °F
Forecast: 42 / 45 °F
Wind: 8 mph from Northwest

Location: Duesseldorf

Current Time: Dec 19, 2014 at 2:21:01 PM

Latest Report: Dec 19, 2014 at 1:50 PM


Visibility: N/A

Pressure: 29.86 "Hg

Humidity: 94%

Dew point: 48 °F

Location of MoersLocation

Historic Weather in Moers — Graph

°F

Moers temperature yesterday

Maximum temperature yesterday: 55 °F (at 4:50 PM)
Minimum temperature yesterday: 50 °F (at 12:20 AM)
Average temperature yesterday: 53 °F

Past Weeks' High & Low Weather Summary

 TemperatureHumidityPressure
High55 °F (Dec 18, 4:50 PM)100% (Dec 8, 5:20 AM)30.36 "Hg (Dec 8, 5:20 AM)
Low30 °F (Dec 14, 5:50 AM)61% (Dec 7, 1:50 PM)29.42 "Hg (Dec 12, 12:50 PM)
Average42 °F87%29.95 "Hg
* Reported Dec 4 1:20 PM — Dec 19 1:20 PM, Moers, Weather by CustomWeather, © 2014

Note: Actual official high and low records may vary slightly from our data, if they occured in-between our weather recording intervals... More about our weather records

Advertising

Moers weather history for previous 24 hours

 ConditionsComfort  
Time TempWeatherWind HumidityBarometerVisibility
1:20 PM
Dec 19
52 °FRain. More clouds than sun.16 mph94%29.86 "Hg2 mi
12:50 PM52 °FDrizzle. More clouds than sun.20 mph94%29.83 "HgN/A
12:20 PM52 °FDrizzle. More clouds than sun.22 mph94%29.83 "HgN/A
11:50 AM52 °FDrizzle. More clouds than sun.22 mph94%29.83 "HgN/A
11:20 AM52 °FDrizzle. Broken clouds.24 mph94%29.83 "HgN/A
10:50 AM52 °FDrizzle. Broken clouds.24 mph94%29.83 "HgN/A
10:20 AM52 °FDrizzle. Broken clouds.26 mph94%29.83 "HgN/A
9:50 AM52 °FDrizzle. Broken clouds.23 mph94%29.83 "HgN/A
9:20 AM52 °FDrizzle. Broken clouds.23 mph94%29.83 "HgN/A
8:50 AM52 °FDrizzle. Broken clouds.22 mph94%29.83 "HgN/A
8:20 AM52 °FPassing clouds.22 mph94%29.83 "HgN/A
7:50 AM54 °FPassing clouds.23 mph82%29.83 "HgN/A
7:20 AM54 °FLight rain. Passing clouds.26 mph82%29.83 "HgN/A
6:50 AM54 °FLight rain. Passing clouds.24 mph82%29.83 "HgN/A
6:20 AM54 °FPassing clouds.23 mph82%29.86 "HgN/A
5:50 AM54 °FPassing clouds.21 mph88%29.86 "HgN/A
5:20 AM54 °FPassing clouds.22 mph88%29.86 "HgN/A
4:50 AM54 °FPartly cloudy.24 mph88%29.86 "HgN/A
4:20 AM54 °FPartly cloudy.25 mph88%29.89 "HgN/A
3:50 AM52 °FPartly cloudy.20 mph94%29.89 "HgN/A
3:20 AM52 °FPartly cloudy.23 mph94%29.89 "HgN/A
2:50 AM54 °FLight rain. Partly cloudy.22 mph88%29.89 "HgN/A
2:20 AM54 °FLight rain. Partly cloudy.22 mph88%29.89 "HgN/A
1:50 AM54 °FLight rain. Partly cloudy.22 mph88%29.89 "HgN/A
1:20 AM54 °FPassing clouds.21 mph88%29.89 "HgN/A
12:50 AM54 °FPassing clouds.23 mph88%29.92 "HgN/A
12:20 AM54 °FPassing clouds.25 mph88%29.89 "HgN/A
11:50 PM
Dec 18
54 °FPassing clouds.24 mph88%29.89 "HgN/A
11:20 PM54 °FPassing clouds.22 mph88%29.89 "HgN/A
10:50 PM54 °FPassing clouds.22 mph88%29.89 "HgN/A
10:20 PM54 °FPassing clouds.24 mph88%29.89 "HgN/A
9:20 PM54 °FDrizzle. Mostly cloudy.21 mph94%29.89 "HgN/A
8:50 PM54 °FDrizzle. Mostly cloudy.20 mph88%29.89 "HgN/A
8:20 PM54 °FPassing clouds.22 mph88%29.89 "HgN/A
7:50 PM54 °FPassing clouds.25 mph88%29.89 "HgN/A
7:20 PM55 °FPassing clouds.25 mph82%29.89 "HgN/A
6:50 PM55 °FPassing clouds.22 mph82%29.89 "HgN/A
6:20 PM55 °FPassing clouds.25 mph82%29.86 "HgN/A
5:50 PM55 °FPassing clouds.23 mph88%29.86 "HgN/A
5:20 PM55 °FPassing clouds.18 mph94%29.86 "HgN/A
4:50 PM55 °FPartly cloudy.17 mph94%29.86 "HgN/A
4:20 PM54 °FBroken clouds.16 mph94%29.83 "Hg5 mi
3:50 PM54 °FDrizzle. Broken clouds.16 mph94%29.83 "Hg4 mi
3:20 PM54 °FDrizzle. Broken clouds.14 mph94%29.83 "Hg4 mi
2:50 PM54 °FDrizzle. Broken clouds.13 mph94%29.83 "Hg4 mi
2:20 PM54 °FDrizzle. Broken clouds.12 mph94%29.86 "Hg4 mi
Weather by CustomWeather, © 2014

See weather overviewHow to use our weather pages